Offutt Air Force Base
KOFF : now visible

Airfield :











YOU CAN JOIN US ON...

 
LOGIN :

Register | Disclaimer

   EN    FR    IT 

 









Legend :    VFR   Marginal VFR   IFR   Intensive IFR   Very Intensive IFR
Visi :
Ceiling :
>= 8 km
>= 3000ft
5 to 8 km
1000 to 3000 ft
1500m to 5 km
500 to 1000 ft
800 to 1500m
200 to 500 ft
< 800m
< 200 ft
Symbols :   Thunderstorms  Fog  Heavy snow  Heavy precipitations  Wind > 20 kt






- Airport Elevation : 1052 ft


KOFF - Offutt Air Force Base

CURRENT METAR :
  • 270756Z 00000KT 10SM FEW120 SCT240 04/M02 A2984 RMK AO2A SLP113 T00361022 PWINO PNO FZRANO TSNO VISNO RWY12 CHINO RWY12 $

EXPIRED METARs :
  • 270656Z 00000KT 10SM FEW160 SCT240 03/M03 A2985 RMK AO2A SLP118 T00321030 PWINO PNO FZRANO TSNO VISNO RWY12 CHINO RWY12 $
  • 270556Z 00000KT 10SM FEW150 BKN240 04/M03 A2985 RMK AO2A SLP119 T00401033 10084 20040 401321015 56004 PWINO PNO FZRANO TSNO VISNO RWY12 CHINO RWY12 $

Expired Forecast.
KZMP FIR / North America



MET'MAP, your aeronautical weather chart ! - Copyright ORBIFLY December 2007 - Disclaimer

ORBIFLY MET'MAP TEAM :

Programming & Development : Alexandra Zaïnal
Concept & original design : Baudouin d'Aumeries
Assistance for programming : Marc-Olivier Méhu
Technical & hardware support : Manuel Goepfert

Contact : metmap@orbifly.com




SOURCES & CREDITS :

   NOAA       Earth
Advisory